Weather History for KDAL - March, 2013

Change the Weather History Date:

Tuesday, March 26, 2013

  Actual Average Record
Temperature  
Mean Temperature 47 °F -  
Max Temperature 59 °F 67 °F 86 °F (2011)
Min Temperature 35 °F 49 °F 35 °F (2002)
Degree Days  
Heating Degree Days 18    
Moisture  
Dew Point 19 °F    
Average Humidity 35    
Maximum Humidity 54    
Minimum Humidity 20    
Precipitation  
Precipitation 0.00 in - - ()
Sea Level Pressure  
Sea Level Pressure 30.40 in    
Wind  
Wind Speed 3 mph (East)    
Max Wind Speed 10 mph    
Max Gust Speed -    
Visibility 10 miles    
Events      
Averages and records for this station are not official NWS values.
T = Trace of Precipitation, MM = Missing Value Source: NWS Daily Summary

Daily Weather History Graph

Daily Weather History Graph

Search for Another Location

Airport or City:

Trip Planner

Search our weather history database for the weather conditions in past years. The results will help you decide how hot, cold, wet, or windy it might be!

Date:

Astronomy

Mar. 26, 2013 Rise Set
Actual Time 7:22 AM CDT 7:43 PM CDT
Civil Twilight 6:58 AM CDT 8:08 PM CDT
Nautical Twilight 6:29 AM CDT 8:37 PM CDT
Astronomical Twilight 6:00 AM CDT 9:06 PM CDT
Moon 7:20 PM CDT (3/26) 6:39 AM CDT (3/26)
Length of Visible Light 13h 10m
Length of Day
12h 20m
Waxing Gibbous, 99% of the Moon is Illuminated
Mar 26
Waxing Gibbous
Mar 27
Full
Apr 2
Last Quarter
Apr 10
New
Apr 18
First Quarter

Hourly Weather History & Observations

Time (CDT) Temp. Windchill Dew Point Humidity Pressure Visibility Wind Dir Wind Speed Gust Speed Precip Events Conditions
12:53 AM 39.9 °F 37.8 °F 16.0 °F 38% 30.41 in 10.0 mi NNW 3.5 mph - N/A   Clear
1:53 AM 41.0 °F - 18.0 °F 40% 30.41 in 10.0 mi Calm Calm - N/A   Clear
2:53 AM 37.0 °F 33.3 °F 19.9 °F 50% 30.40 in 10.0 mi NNW 4.6 mph - N/A   Clear
3:53 AM 37.0 °F 33.3 °F 19.0 °F 48% 30.40 in 10.0 mi NNE 4.6 mph - N/A   Clear
4:53 AM 35.1 °F - 19.9 °F 54% 30.41 in 10.0 mi Calm Calm - N/A   Clear
5:53 AM 36.0 °F - 19.0 °F 50% 30.43 in 10.0 mi Calm Calm - N/A   Clear
6:53 AM 36.0 °F - 19.9 °F 52% 30.45 in 10.0 mi Calm Calm - N/A   Clear
7:53 AM 36.0 °F - 19.0 °F 50% 30.48 in 10.0 mi Calm Calm - N/A   Clear
8:53 AM 39.0 °F 35.7 °F 18.0 °F 43% 30.51 in 10.0 mi East 4.6 mph - N/A   Clear
9:53 AM 42.1 °F - 17.1 °F 37% 30.52 in 10.0 mi Calm Calm - N/A   Clear
10:53 AM 45.0 °F - 17.1 °F 33% 30.52 in 10.0 mi Calm Calm - N/A   Clear
11:53 AM 46.9 °F - 17.1 °F 30% 30.50 in 10.0 mi Calm Calm - N/A   Clear
12:53 PM 50.0 °F - 16.0 °F 26% 30.47 in 10.0 mi SE 5.8 mph - N/A   Clear
1:53 PM 53.1 °F - 18.0 °F 25% 30.45 in 10.0 mi Variable 5.8 mph - N/A   Clear
2:53 PM 55.0 °F - 18.0 °F 23% 30.40 in 10.0 mi NW 4.6 mph - N/A   Clear
3:53 PM 57.0 °F - 18.0 °F 22% 30.37 in 10.0 mi Calm Calm - N/A   Clear
4:53 PM 59.0 °F - 18.0 °F 20% 30.34 in 10.0 mi Calm Calm - N/A   Clear
5:53 PM 59.0 °F - 17.1 °F 20% 30.32 in 10.0 mi Calm Calm - N/A   Clear
6:53 PM 57.9 °F - 17.1 °F 20% 30.32 in 10.0 mi South 3.5 mph - N/A   Clear
7:53 PM 55.9 °F - 18.0 °F 23% 30.31 in 10.0 mi ESE 5.8 mph - N/A   Partly Cloudy
8:53 PM 53.1 °F - 21.0 °F 29% 30.31 in 10.0 mi East 5.8 mph - N/A   Partly Cloudy
9:53 PM 51.1 °F - 21.0 °F 31% 30.32 in 10.0 mi ESE 6.9 mph - N/A   Scattered Clouds
10:53 PM 48.9 °F - 21.9 °F 35% 30.33 in 10.0 mi ESE 8.1 mph - N/A   Scattered Clouds
11:53 PM 48.9 °F - 21.9 °F 35% 30.32 in 10.0 mi SE 10.4 mph - N/A   Scattered Clouds